Погода в Марфино

Россия / Московская область     56°04′26″N   37°33′24″E
темп.,
°C
ветер,
м/с
пор.,
м/с
влажн.,
%
обл.,
%
осадки,
мм/ч
давл.,
гПа
погр.,
м
17 сентября, пт
пт1700:00+6с2477100 0.1 1020302
03:00+5с2475100 0.1 1020304
06:00+5с2573100 0.0 1020271
09:00+7ссв3463100 0.1 1020687
12:00+9всв2351100 0.1 10201555
15:00+9св234999 0.1 10201395
18:00+8ссв245584 0.0 1020476
21:00+5всв24685 0.0 102297
18 сентября, сб
сб1800:00+3св23745 0.0 102355
03:00+3св24825 0.0 102387
06:00+2всв368442 0.0 1024129
09:00+6всв3762100 0.0 1024445
12:00+10в454816 0.0 10241326
15:00+11всв564683 0.0 10231519
18:00+9всв5857100 0.0 1023679
21:00+5всв51270100 0.0 1024500
19 сентября, вс
вс1900:00+5в51271100 0.0 1024490
03:00+4в51272100 0.0 1023474
06:00+4в51273100 0.0 1023484
09:00+6в61366100 0.0 1023640
12:00+8в71155100 0.0 10231008
15:00+8в71159100 0.0 1022984
18:00+7в71263100 0.1 1021983
21:00+7в61259100 0.3 1021932
20 сентября, пн
пн2000:00+6в61357100 0.1 1020959
03:00+5в71574100 1.3 1020851
06:00+4всв81582100 0.7 1020948
09:00+3всв81595100 1.2 1020878
12:00+3всв81592100 0.4 1020855
15:00+3всв71695100 0.8 1020824
18:00+4всв71596100 0.4 1020883
21:00+4всв71496100 1.2 1019895
21 сентября, вт
вт2100:00+5всв71492100 0.9 1018856
03:00+5в61293100 2.6 1016789
06:00+5в61294100 1.4 1015680
09:00+5в61295100 2.9 1014662
12:00+6в61194100 0.3 1014560
15:00+6в51096100 1.4 1014505
18:00+6в5996100 0.3 1014460
21:00+6в4997100 0.3 1014397